This demonstration page uses our WeatherBlox Daily Observations layout. Learn more.

38.88101, -77.10428

Hourly Observations for March 25, 2018

Temp ( °F °C ) Dew Point ( °F °C ) Humidity (%) Winds ( mph kmh ) Pressure ( in mb ) Visibility ( mi km ) Precip ( " mm )
12:52 am 00:52 Mostly Cloudy 41 5 26 -3.3 55 55 Calm 30.14 1021 10 16.0934 0 0
1:52 am 01:52 Mostly Cloudy 40 4.4 26 -3.3 58 58 Calm 30.14 1021 10 16.0934 0 0
2:52 am 02:52 Mostly Cloudy 37 2.8 27 -2.8 67 67 Calm 30.14 1021 10 16.0934 0 0
3:52 am 03:52 Mostly Cloudy 36 2.2 27 -2.8 70 70 WSW 3 6 30.14 1021 10 16.0934 0 0
4:52 am 04:52 Partly Cloudy 37 2.8 24 -4.4 59 59 NE 15 24 30.17 1022 10 16.0934 0 0
5:52 am 05:52 Partly Cloudy 37 2.8 22 -5.6 54 54 NNE 15 24 30.19 1023 10 16.0934 0 0
6:52 am 06:52 Partly Cloudy 35 1.7 20 -6.7 54 54 N 16 26 30.22 1023 10 16.0934 0 0
7:52 am 07:52 Partly Cloudy 35 1.7 20 -6.7 54 54 N 14 22 30.25 1024 10 16.0934 0 0
8:52 am 08:52 Mostly Cloudy 34 1.1 18 -7.8 52 52 N 17 28 30.29 1026 10 16.0934 0 0
9:52 am 09:52 Mostly Cloudy 36 2.2 18 -7.8 48 48 N 14 22 30.33 1027 10 16.0934 0 0
10:52 am 10:52 Mostly Cloudy 38 3.3 19 -7.2 46 46 N 16 26 30.36 1028 10 16.0934 0 0
11:52 am 11:52 Mostly Cloudy 40 4.4 20 -6.7 45 45 NNE 13 20 30.38 1029 10 16.0934 0 0
12:52 pm 12:52 Cloudy 43 6.1 23 -5 45 45 N 14 22 30.39 1029 10 16.0934 0 0
1:52 pm 13:52 Mostly Cloudy 46 7.8 25 -3.9 44 44 N 15 24 30.4 1029 10 16.0934 0 0
2:52 pm 14:52 Mostly Cloudy 47 8.3 30 -1.1 52 52 NE 16 26 30.4 1029 10 16.0934 0 0
3:52 pm 15:52 Partly Cloudy 47 8.3 31 -0.6 54 54 ENE 16 26 30.4 1029 10 16.0934 0 0
4:52 pm 16:52 Mostly Cloudy 46 7.8 31 -0.6 56 56 NE 17 28 30.41 1030 10 16.0934 0 0
5:52 pm 17:52 Mostly Cloudy 44 6.7 32 0 63 63 ENE 13 20 30.44 1031 10 16.0934 0 0
6:52 pm 18:52 Partly Cloudy 44 6.7 31 -0.6 60 60 NE 13 20 30.45 1031 10 16.0934 0 0
7:52 pm 19:52 Mostly Clear 43 6.1 32 0 65 65 NE 7 11 30.48 1032 10 16.0934 0 0
8:52 pm 20:52 Cloudy 44 6.7 33 0.6 65 65 NE 13 20 30.51 1033 10 16.0934 0 0
9:52 pm 21:52 Mostly Cloudy 42 5.6 32 0 68 68 E 9 15 30.53 1034 10 16.0934 0 0
10:52 pm 22:52 Mostly Cloudy 40 4.4 31 -0.6 70 70 E 8 13 30.55 1035 10 16.0934 0 0
11:52 pm 23:52 Mostly Cloudy 39 3.9 30 -1.1 70 70 ESE 5 7 30.57 1035 10 16.0934 0 0

Powered by AerisWeather